HISAKI (SPRINT-A) (39253 NORAD) Tracking and Keplerian Element Data

This shows tracking and keplerian element data for the satellite.

Feedback or suggestion? Click here.




ElementValue
Catalog39253
NameHISAKI (SPRINT-A)
Epoch Orbit26070
Epoch Day351.79601911
Epoch Year2018
RAAN97.0155
Inclination29.7197
Eccentricity0.0136704
Argument of Perigee144.2279
Mean Anonmoly216.7538
Mean Motion13.55194907
Decay Rate6.5E-07
L11 39253U 13049A 18351.79601911 .00000065 00000-0 -42431-7 0 9994
L22 39253 29.7197 97.0155 0136704 144.2279 216.7538 13.55194907260707

Live tracking and technical data element details for HISAKI (SPRINT-A) (NORAD 39253). HISAKI (SPRINT-A) can be tracked NOW for your location showing map with azimuth and elevation plus other details from your city location.

Track the satellite on the map from your city or location and see movement details for azimuth, elevation, latitude, longitude, range, height, and movement on the map or in text.







IsCatalogInMostPopularTable: catalog: 39253, numindb: 102
Update: records affected: 1



GetName: 39253 HISAKI (SPRINT-A)

Hit Count: updated at: Wed, 19 Dec 2018 16:10:47 GMT